Time,TemperatureF,DewpointF,PressureIn,WindDirection,WindDirectionDegrees,WindSpeedMPH,WindSpeedGustMPH,Humidity,HourlyPrecipIn,Conditions,Clouds,dailyrainin,SoftwareType,DateUTC
2013-08-19 00:05:00,58.5,41.4,29.86,WNW,291,2.0,5.0,53,0.00,,,0.00,meteohub,2013-08-19 06:05:00,
2013-08-19 00:11:00,57.7,41.2,29.87,WNW,291,2.0,4.0,54,0.00,,,0.00,meteohub,2013-08-19 06:11:00,
2013-08-19 00:17:00,57.2,41.2,29.87,WNW,291,0.0,4.0,55,0.00,,,0.00,meteohub,2013-08-19 06:17:00,
2013-08-19 00:23:00,56.7,41.5,29.87,WNW,291,0.0,4.0,57,0.00,,,0.00,meteohub,2013-08-19 06:23:00,
2013-08-19 00:29:00,56.5,41.9,29.87,WNW,291,0.0,3.0,58,0.00,,,0.00,meteohub,2013-08-19 06:29:00,
2013-08-19 00:35:00,55.9,41.4,29.87,WNW,291,0.0,2.0,58,0.00,,,0.00,meteohub,2013-08-19 06:35:00,
2013-08-19 00:41:00,55.4,41.4,29.87,WNW,291,5.0,5.0,59,0.00,,,0.00,meteohub,2013-08-19 06:41:00,
2013-08-19 00:47:00,55.0,41.9,29.86,WNW,290,5.0,7.0,61,0.00,,,0.00,meteohub,2013-08-19 06:47:00,
2013-08-19 00:53:00,54.9,41.7,29.86,WNW,293,5.0,7.0,61,0.00,,,0.00,meteohub,2013-08-19 06:53:00,
2013-08-19 00:59:00,54.9,41.7,29.87,WNW,293,4.0,8.0,61,0.00,,,0.00,meteohub,2013-08-19 06:59:00,
2013-08-19 01:05:00,55.2,41.2,29.86,WNW,293,1.0,8.0,59,0.00,,,0.00,meteohub,2013-08-19 07:05:00,
2013-08-19 01:11:00,55.6,41.0,29.86,WNW,293,1.0,4.0,58,0.00,,,0.00,meteohub,2013-08-19 07:11:00,
2013-08-19 01:17:00,56.1,41.2,29.86,WNW,293,3.0,4.0,57,0.00,,,0.00,meteohub,2013-08-19 07:17:00,
2013-08-19 01:23:00,56.8,41.4,29.86,WNW,293,0.0,5.0,56,0.00,,,0.00,meteohub,2013-08-19 07:23:00,
2013-08-19 01:30:00,57.4,41.4,29.86,WNW,293,0.0,5.0,55,0.00,,,0.00,meteohub,2013-08-19 07:30:00,
2013-08-19 01:35:00,57.7,41.7,29.86,WNW,293,0.0,2.0,55,0.00,,,0.00,meteohub,2013-08-19 07:35:00,
2013-08-19 01:42:00,57.7,42.1,29.86,WNW,293,2.0,2.0,56,0.00,,,0.00,meteohub,2013-08-19 07:42:00,
2013-08-19 01:48:00,57.7,42.6,29.86,WNW,293,0.0,3.0,57,0.00,,,0.00,meteohub,2013-08-19 07:48:00,
2013-08-19 01:54:00,57.6,43.0,29.86,WNW,293,2.0,3.0,58,0.00,,,0.00,meteohub,2013-08-19 07:54:00,
2013-08-19 02:00:00,57.0,41.9,29.86,WNW,293,0.0,4.0,57,0.00,,,0.00,meteohub,2013-08-19 08:00:00,
2013-08-19 02:06:00,56.7,42.1,29.86,WNW,293,1.0,4.0,58,0.00,,,0.00,meteohub,2013-08-19 08:06:00,
2013-08-19 02:12:00,55.9,41.9,29.86,WNW,293,0.0,3.0,59,0.00,,,0.00,meteohub,2013-08-19 08:12:00,
2013-08-19 02:18:00,55.6,42.3,29.86,WNW,293,0.0,1.0,61,0.00,,,0.00,meteohub,2013-08-19 08:18:00,
2013-08-19 02:24:00,55.4,42.6,29.86,WNW,293,0.0,1.0,62,0.00,,,0.00,meteohub,2013-08-19 08:24:00,
2013-08-19 02:30:00,55.2,42.8,29.86,WNW,293,0.0,1.0,63,0.00,,,0.00,meteohub,2013-08-19 08:30:00,
2013-08-19 02:36:00,54.9,42.4,29.86,WNW,293,0.0,2.0,63,0.00,,,0.00,meteohub,2013-08-19 08:36:00,
2013-08-19 02:42:00,54.3,42.4,29.86,WNW,293,3.0,3.0,64,0.00,,,0.00,meteohub,2013-08-19 08:42:00,
2013-08-19 02:48:00,54.1,42.3,29.86,WNW,293,3.0,3.0,64,0.00,,,0.00,meteohub,2013-08-19 08:48:00,
2013-08-19 02:54:00,53.8,42.3,29.86,WNW,293,2.0,4.0,65,0.00,,,0.00,meteohub,2013-08-19 08:54:00,
2013-08-19 03:00:00,53.2,42.3,29.85,WNW,293,2.0,4.0,66,0.00,,,0.00,meteohub,2013-08-19 09:00:00,
2013-08-19 03:06:00,53.1,42.4,29.85,WNW,293,3.0,4.0,67,0.00,,,0.00,meteohub,2013-08-19 09:06:00,
2013-08-19 03:12:00,53.1,42.1,29.85,WNW,293,2.0,4.0,66,0.00,,,0.00,meteohub,2013-08-19 09:12:00,
2013-08-19 03:18:00,52.9,42.3,29.85,WNW,293,1.0,4.0,67,0.00,,,0.00,meteohub,2013-08-19 09:18:00,
2013-08-19 03:24:00,52.9,42.3,29.85,WNW,293,1.0,4.0,67,0.00,,,0.00,meteohub,2013-08-19 09:24:00,
2013-08-19 03:30:00,52.5,41.5,29.85,WNW,293,2.0,3.0,66,0.00,,,0.00,meteohub,2013-08-19 09:30:00,
2013-08-19 03:36:00,52.7,41.7,29.85,WNW,293,0.0,3.0,66,0.00,,,0.00,meteohub,2013-08-19 09:36:00,
2013-08-19 03:42:00,52.7,41.7,29.85,WNW,293,1.0,2.0,66,0.00,,,0.00,meteohub,2013-08-19 09:42:00,
2013-08-19 03:48:00,52.5,41.5,29.85,WNW,293,0.0,2.0,66,0.00,,,0.00,meteohub,2013-08-19 09:48:00,
2013-08-19 03:54:00,52.3,41.4,29.85,WNW,293,2.0,2.0,66,0.00,,,0.00,meteohub,2013-08-19 09:54:00,
2013-08-19 04:00:00,52.2,41.5,29.85,WNW,293,0.0,3.0,67,0.00,,,0.00,meteohub,2013-08-19 10:00:00,
2013-08-19 04:06:00,52.5,41.5,29.85,WNW,293,0.0,3.0,66,0.00,,,0.00,meteohub,2013-08-19 10:06:00,
2013-08-19 04:12:00,53.1,41.5,29.85,WNW,293,0.0,3.0,65,0.00,,,0.00,meteohub,2013-08-19 10:12:00,
2013-08-19 04:18:00,52.3,41.4,29.85,WNW,293,2.0,2.0,66,0.00,,,0.00,meteohub,2013-08-19 10:18:00,
2013-08-19 04:24:00,52.0,41.4,29.85,WNW,293,1.0,2.0,67,0.00,,,0.00,meteohub,2013-08-19 10:24:00,
2013-08-19 04:30:00,51.8,41.2,29.85,WNW,293,0.0,4.0,67,0.00,,,0.00,meteohub,2013-08-19 10:30:00,
2013-08-19 04:36:00,51.4,40.8,29.85,WNW,293,4.0,4.0,67,0.00,,,0.00,meteohub,2013-08-19 10:36:00,
2013-08-19 04:42:00,51.3,41.4,29.85,WNW,293,2.0,4.0,69,0.00,,,0.00,meteohub,2013-08-19 10:42:00,
2013-08-19 04:48:00,51.1,41.2,29.85,WNW,293,0.0,4.0,69,0.00,,,0.00,meteohub,2013-08-19 10:48:00,
2013-08-19 04:54:00,50.7,41.0,29.85,WNW,293,2.0,4.0,69,0.00,,,0.00,meteohub,2013-08-19 10:54:00,
2013-08-19 05:00:00,50.4,41.0,29.84,WNW,293,3.0,5.0,70,0.00,,,0.00,meteohub,2013-08-19 11:00:00,
2013-08-19 05:06:00,50.2,41.2,29.84,WNW,293,1.0,5.0,71,0.00,,,0.00,meteohub,2013-08-19 11:06:00,
2013-08-19 05:12:00,50.2,41.2,29.85,WNW,293,2.0,5.0,71,0.00,,,0.00,meteohub,2013-08-19 11:12:00,
2013-08-19 05:18:00,50.5,41.5,29.85,WNW,293,2.0,3.0,71,0.00,,,0.00,meteohub,2013-08-19 11:18:00,
2013-08-19 05:24:00,50.7,41.7,29.85,WNW,293,2.0,3.0,71,0.00,,,0.00,meteohub,2013-08-19 11:24:00,
2013-08-19 05:31:00,51.1,42.1,29.85,WNW,293,2.0,3.0,71,0.00,,,0.00,meteohub,2013-08-19 11:31:00,
2013-08-19 05:37:00,51.3,41.9,29.85,WNW,293,1.0,3.0,70,0.00,,,0.00,meteohub,2013-08-19 11:37:00,
2013-08-19 05:43:00,51.3,41.9,29.85,WNW,293,0.0,3.0,70,0.00,,,0.00,meteohub,2013-08-19 11:43:00,
2013-08-19 05:49:00,51.1,41.7,29.85,WNW,293,4.0,4.0,70,0.00,,,0.00,meteohub,2013-08-19 11:49:00,
2013-08-19 05:55:00,50.7,41.4,29.85,WNW,293,2.0,5.0,70,0.00,,,0.00,meteohub,2013-08-19 11:55:00,
2013-08-19 06:01:00,50.7,41.7,29.85,WNW,293,0.0,5.0,71,0.00,,,0.00,meteohub,2013-08-19 12:01:00,
2013-08-19 06:07:00,50.7,41.4,29.85,WNW,293,1.0,5.0,70,0.00,,,0.00,meteohub,2013-08-19 12:07:00,
2013-08-19 06:13:00,50.5,41.2,29.85,WNW,293,0.0,3.0,70,0.00,,,0.00,meteohub,2013-08-19 12:13:00,
2013-08-19 06:19:00,50.4,41.0,29.85,WNW,293,2.0,2.0,70,0.00,,,0.00,meteohub,2013-08-19 12:19:00,
2013-08-19 06:25:00,50.2,41.2,29.86,WNW,293,2.0,2.0,71,0.00,,,0.00,meteohub,2013-08-19 12:25:00,
2013-08-19 06:31:00,50.2,41.2,29.86,WNW,293,2.0,3.0,71,0.00,,,0.00,meteohub,2013-08-19 12:31:00,
2013-08-19 06:37:00,50.2,41.2,29.86,WNW,293,0.0,4.0,71,0.00,,,0.00,meteohub,2013-08-19 12:37:00,
2013-08-19 06:43:00,50.4,41.4,29.86,WNW,293,4.0,4.0,71,0.00,,,0.00,meteohub,2013-08-19 12:43:00,
2013-08-19 06:49:00,51.1,41.7,29.86,WNW,293,3.0,4.0,70,0.00,,,0.00,meteohub,2013-08-19 12:49:00,
2013-08-19 06:55:00,52.0,42.1,29.86,WNW,293,0.0,4.0,69,0.00,,,0.00,meteohub,2013-08-19 12:55:00,
2013-08-19 07:01:00,52.7,42.4,29.86,WNW,293,0.0,4.0,68,0.00,,,0.00,meteohub,2013-08-19 13:01:00,
2013-08-19 07:07:00,53.8,42.6,29.86,WNW,293,0.0,4.0,66,0.00,,,0.00,meteohub,2013-08-19 13:07:00,
2013-08-19 07:13:00,54.5,43.0,29.86,WNW,293,0.0,3.0,65,0.00,,,0.00,meteohub,2013-08-19 13:13:00,
2013-08-19 07:19:00,55.4,43.0,29.86,WNW,293,0.0,2.0,63,0.00,,,0.00,meteohub,2013-08-19 13:19:00,
2013-08-19 07:25:00,56.7,43.7,29.86,WNW,293,2.0,2.0,62,0.00,,,0.00,meteohub,2013-08-19 13:25:00,
2013-08-19 07:31:00,57.0,43.3,29.87,NNE,22,1.0,4.0,60,0.00,,,0.00,meteohub,2013-08-19 13:31:00,
2013-08-19 07:37:00,57.2,43.5,29.87,NNE,23,2.0,5.0,60,0.00,,,0.00,meteohub,2013-08-19 13:37:00,
2013-08-19 07:43:00,57.2,43.0,29.87,NNE,24,2.0,5.0,59,0.00,,,0.00,meteohub,2013-08-19 13:43:00,
2013-08-19 07:49:00,57.4,43.2,29.87,NNE,27,2.0,4.0,59,0.00,,,0.00,meteohub,2013-08-19 13:49:00,
2013-08-19 07:55:00,57.7,43.0,29.87,NNE,27,1.0,6.0,58,0.00,,,0.00,meteohub,2013-08-19 13:55:00,
2013-08-19 08:01:00,58.5,42.8,29.87,NNE,27,0.0,6.0,56,0.00,,,0.00,meteohub,2013-08-19 14:01:00,
2013-08-19 08:07:00,59.0,43.3,29.88,NNE,27,0.0,3.0,56,0.00,,,0.00,meteohub,2013-08-19 14:07:00,
2013-08-19 08:13:00,59.7,43.0,29.88,NNE,27,2.0,3.0,54,0.00,,,0.00,meteohub,2013-08-19 14:13:00,
2013-08-19 08:19:00,60.1,43.3,29.88,NNE,27,4.0,4.0,54,0.00,,,0.00,meteohub,2013-08-19 14:19:00,
2013-08-19 08:25:00,60.1,43.9,29.88,NNE,33,0.0,4.0,55,0.00,,,0.00,meteohub,2013-08-19 14:25:00,
2013-08-19 08:31:00,60.3,43.5,29.88,NNE,33,1.0,4.0,54,0.00,,,0.00,meteohub,2013-08-19 14:31:00,
2013-08-19 08:37:00,60.6,43.3,29.88,NE,43,3.0,3.0,53,0.00,,,0.00,meteohub,2013-08-19 14:37:00,
2013-08-19 08:43:00,61.0,44.2,29.88,NE,43,2.0,4.0,54,0.00,,,0.00,meteohub,2013-08-19 14:43:00,
2013-08-19 08:49:00,61.3,44.1,29.88,ENE,58,2.0,4.0,53,0.00,,,0.00,meteohub,2013-08-19 14:49:00,
2013-08-19 08:55:00,61.5,43.7,29.87,ENE,60,3.0,5.0,52,0.00,,,0.00,meteohub,2013-08-19 14:55:00,
2013-08-19 09:01:00,62.1,44.2,29.87,ENE,60,1.0,5.0,52,0.00,,,0.00,meteohub,2013-08-19 15:01:00,
2013-08-19 09:08:00,62.8,44.4,29.87,ENE,60,2.0,5.0,51,0.00,,,0.00,meteohub,2013-08-19 15:08:00,
2013-08-19 09:14:00,63.5,45.0,29.87,ENE,60,1.0,4.0,51,0.00,,,0.00,meteohub,2013-08-19 15:14:00,
2013-08-19 09:20:00,64.0,44.4,29.87,ENE,60,1.0,4.0,49,0.00,,,0.00,meteohub,2013-08-19 15:20:00,
2013-08-19 09:26:00,64.6,45.0,29.87,ENE,63,4.0,5.0,49,0.00,,,0.00,meteohub,2013-08-19 15:26:00,
2013-08-19 09:32:00,64.9,45.3,29.87,ENE,64,1.0,5.0,49,0.00,,,0.00,meteohub,2013-08-19 15:32:00,
2013-08-19 09:38:00,65.8,45.0,29.87,ENE,76,4.0,4.0,47,0.00,,,0.00,meteohub,2013-08-19 15:38:00,
2013-08-19 09:44:00,66.0,44.6,29.86,East,99,3.0,5.0,46,0.00,,,0.00,meteohub,2013-08-19 15:44:00,
2013-08-19 09:50:00,66.7,45.3,29.86,East,99,1.0,7.0,46,0.00,,,0.00,meteohub,2013-08-19 15:50:00,
2013-08-19 09:56:00,67.5,45.3,29.86,East,99,2.0,7.0,45,0.00,,,0.00,meteohub,2013-08-19 15:56:00,
2013-08-19 10:02:00,68.0,44.6,29.86,East,98,2.0,6.0,43,0.00,,,0.00,meteohub,2013-08-19 16:02:00,
2013-08-19 10:08:00,68.2,44.8,29.86,East,98,0.0,7.0,43,0.00,,,0.00,meteohub,2013-08-19 16:08:00,
2013-08-19 10:14:00,68.7,45.3,29.86,East,100,5.0,7.0,43,0.00,,,0.00,meteohub,2013-08-19 16:14:00,
2013-08-19 10:20:00,69.3,45.9,29.86,ESE,106,5.0,7.0,43,0.00,,,0.00,meteohub,2013-08-19 16:20:00,
2013-08-19 10:26:00,69.3,45.1,29.85,ESE,107,2.0,9.0,42,0.00,,,0.00,meteohub,2013-08-19 16:26:00,
2013-08-19 10:32:00,70.0,45.1,29.85,ESE,107,4.0,8.0,41,0.00,,,0.00,meteohub,2013-08-19 16:32:00,
2013-08-19 10:38:00,70.3,44.2,29.85,ESE,108,2.0,7.0,39,0.00,,,0.00,meteohub,2013-08-19 16:38:00,
2013-08-19 10:44:00,70.9,45.3,29.85,ESE,114,8.0,8.0,40,0.00,,,0.00,meteohub,2013-08-19 16:44:00,
2013-08-19 10:50:00,71.2,46.4,29.85,ESE,119,4.0,9.0,41,0.00,,,0.00,meteohub,2013-08-19 16:50:00,
2013-08-19 10:56:00,71.4,45.1,29.85,SSE,151,3.0,9.0,39,0.00,,,0.00,meteohub,2013-08-19 16:56:00,
2013-08-19 11:02:00,72.3,45.3,29.85,SSE,147,7.0,8.0,38,0.00,,,0.00,meteohub,2013-08-19 17:02:00,
2013-08-19 11:08:00,73.0,43.7,29.84,SE,145,3.0,8.0,35,0.00,,,0.00,meteohub,2013-08-19 17:08:00,
2013-08-19 11:14:00,73.8,44.4,29.84,SE,145,0.0,8.0,35,0.00,,,0.00,meteohub,2013-08-19 17:14:00,
2013-08-19 11:20:00,73.9,43.9,29.84,SE,145,2.0,8.0,34,0.00,,,0.00,meteohub,2013-08-19 17:20:00,
2013-08-19 11:26:00,74.8,43.9,29.84,SE,145,3.0,6.0,33,0.00,,,0.00,meteohub,2013-08-19 17:26:00,
2013-08-19 11:32:00,75.4,43.5,29.83,SE,143,4.0,6.0,32,0.00,,,0.00,meteohub,2013-08-19 17:32:00,
2013-08-19 11:38:00,76.1,42.4,29.83,SE,143,0.0,8.0,30,0.00,,,0.00,meteohub,2013-08-19 17:38:00,
2013-08-19 11:44:00,77.0,43.2,29.83,ENE,77,5.0,8.0,30,0.00,,,0.00,meteohub,2013-08-19 17:44:00,
2013-08-19 11:50:00,77.7,41.0,29.83,ENE,64,3.0,9.0,27,0.00,,,0.00,meteohub,2013-08-19 17:50:00,
2013-08-19 11:56:00,78.3,41.5,29.83,North,5,3.0,9.0,27,0.00,,,0.00,meteohub,2013-08-19 17:56:00,
2013-08-19 12:02:00,79.2,42.3,29.83,NNE,29,2.0,9.0,27,0.00,,,0.00,meteohub,2013-08-19 18:02:00,
2013-08-19 12:08:00,79.7,41.7,29.83,ENE,62,5.0,9.0,26,0.00,,,0.00,meteohub,2013-08-19 18:08:00,
2013-08-19 12:14:00,79.9,43.0,29.82,SE,143,7.0,9.0,27,0.00,,,0.00,meteohub,2013-08-19 18:14:00,
2013-08-19 12:20:00,79.7,42.8,29.82,South,178,4.0,8.0,27,0.00,,,0.00,meteohub,2013-08-19 18:20:00,
2013-08-19 12:26:00,79.5,42.6,29.82,SE,141,6.0,11.0,27,0.00,,,0.00,meteohub,2013-08-19 18:26:00,
2013-08-19 12:32:00,79.9,41.9,29.81,South,172,5.0,11.0,26,0.00,,,0.00,meteohub,2013-08-19 18:32:00,
2013-08-19 12:38:00,80.2,40.1,29.81,SSE,158,3.0,11.0,24,0.00,,,0.00,meteohub,2013-08-19 18:38:00,
2013-08-19 12:44:00,80.1,40.1,29.81,SSE,168,4.0,10.0,24,0.00,,,0.00,meteohub,2013-08-19 18:44:00,
2013-08-19 12:51:00,80.4,38.1,29.81,SE,126,7.0,11.0,22,0.00,,,0.00,meteohub,2013-08-19 18:51:00,
2013-08-19 12:57:00,81.0,37.4,29.81,ESE,108,5.0,11.0,21,0.00,,,0.00,meteohub,2013-08-19 18:57:00,
2013-08-19 13:02:00,81.0,37.4,29.81,SE,127,10.0,11.0,21,0.00,,,0.00,meteohub,2013-08-19 19:02:00,
2013-08-19 13:09:00,81.3,38.8,29.81,SE,126,4.0,11.0,22,0.00,,,0.00,meteohub,2013-08-19 19:09:00,
2013-08-19 13:15:00,81.9,38.1,29.81,East,90,6.0,11.0,21,0.00,,,0.00,meteohub,2013-08-19 19:15:00,
2013-08-19 13:21:00,82.4,37.2,29.80,East,91,10.0,11.0,20,0.00,,,0.00,meteohub,2013-08-19 19:21:00,
2013-08-19 13:27:00,81.7,37.9,29.80,SSE,152,8.0,13.0,21,0.00,,,0.00,meteohub,2013-08-19 19:27:00,
2013-08-19 13:33:00,82.0,37.0,29.80,SE,129,0.0,13.0,20,0.00,,,0.00,meteohub,2013-08-19 19:33:00,
2013-08-19 13:39:00,82.2,35.8,29.80,East,89,10.0,13.0,19,0.00,,,0.00,meteohub,2013-08-19 19:39:00,
2013-08-19 13:45:00,82.6,34.7,29.80,East,88,7.0,14.0,18,0.00,,,0.00,meteohub,2013-08-19 19:45:00,
2013-08-19 13:51:00,82.4,36.0,29.80,ENE,77,4.0,16.0,19,0.00,,,0.00,meteohub,2013-08-19 19:51:00,
2013-08-19 13:57:00,82.4,36.0,29.79,ESE,122,7.0,16.0,19,0.00,,,0.00,meteohub,2013-08-19 19:57:00,
2013-08-19 14:03:00,83.1,36.7,29.79,East,87,1.0,16.0,19,0.00,,,0.00,meteohub,2013-08-19 20:03:00,
2013-08-19 14:09:00,82.8,33.4,29.79,East,91,8.0,12.0,17,0.00,,,0.00,meteohub,2013-08-19 20:09:00,
2013-08-19 14:15:00,82.8,33.4,29.78,North,353,6.0,10.0,17,0.00,,,0.00,meteohub,2013-08-19 20:15:00,
2013-08-19 14:21:00,82.8,33.4,29.78,North,0,0.0,13.0,17,0.00,,,0.00,meteohub,2013-08-19 20:21:00,
2013-08-19 14:27:00,82.4,34.7,29.78,NE,51,3.0,13.0,18,0.00,,,0.00,meteohub,2013-08-19 20:27:00,
2013-08-19 14:33:00,82.0,34.3,29.78,North,5,6.0,13.0,18,0.00,,,0.00,meteohub,2013-08-19 20:33:00,
2013-08-19 14:39:00,81.9,34.2,29.78,North,5,4.0,11.0,18,0.00,,,0.00,meteohub,2013-08-19 20:39:00,
2013-08-19 14:45:00,81.7,35.4,29.77,NE,42,12.0,12.0,19,0.00,,,0.00,meteohub,2013-08-19 20:45:00,
2013-08-19 14:51:00,81.0,34.9,29.77,ENE,63,7.0,16.0,19,0.00,,,0.00,meteohub,2013-08-19 20:51:00,
2013-08-19 14:57:00,81.0,36.1,29.77,ENE,57,5.0,16.0,20,0.00,,,0.00,meteohub,2013-08-19 20:57:00,
2013-08-19 15:03:00,81.9,35.6,29.76,NNE,31,11.0,16.0,19,0.00,,,0.00,meteohub,2013-08-19 21:03:00,
2013-08-19 15:09:00,82.2,35.8,29.76,ENE,60,0.0,14.0,19,0.00,,,0.00,meteohub,2013-08-19 21:09:00,
2013-08-19 15:15:00,82.6,36.1,29.75,ENE,66,8.0,13.0,19,0.00,,,0.00,meteohub,2013-08-19 21:15:00,
2013-08-19 15:21:00,82.8,37.6,29.76,East,87,13.0,18.0,20,0.00,,,0.00,meteohub,2013-08-19 21:21:00,
2013-08-19 15:27:00,81.1,37.6,29.76,ENE,74,10.0,18.0,21,0.00,,,0.00,meteohub,2013-08-19 21:27:00,
2013-08-19 15:33:00,79.0,37.9,29.76,East,91,10.0,18.0,23,0.00,,,0.00,meteohub,2013-08-19 21:33:00,
2013-08-19 15:39:00,78.3,38.5,29.75,East,96,14.0,21.0,24,0.00,,,0.00,meteohub,2013-08-19 21:39:00,
2013-08-19 15:45:00,78.1,39.4,29.75,ESE,117,8.0,21.0,25,0.00,,,0.00,meteohub,2013-08-19 21:45:00,
2013-08-19 15:51:00,78.3,40.6,29.76,East,99,8.0,18.0,26,0.00,,,0.00,meteohub,2013-08-19 21:51:00,
2013-08-19 15:57:00,77.7,40.1,29.75,ESE,111,13.0,18.0,26,0.00,,,0.00,meteohub,2013-08-19 21:57:00,
2013-08-19 16:03:00,77.4,39.7,29.75,East,99,16.0,19.0,26,0.00,,,0.00,meteohub,2013-08-19 22:03:00,
2013-08-19 16:09:00,76.6,40.1,29.75,ESE,123,10.0,21.0,27,0.00,,,0.00,meteohub,2013-08-19 22:09:00,
2013-08-19 16:16:00,76.6,41.2,29.76,ESE,109,11.0,22.0,28,0.00,,,0.00,meteohub,2013-08-19 22:16:00,
2013-08-19 16:22:00,75.7,41.2,29.76,East,80,8.0,22.0,29,0.00,,,0.00,meteohub,2013-08-19 22:22:00,
2013-08-19 16:28:00,75.4,41.0,29.76,East,81,11.0,22.0,29,0.00,,,0.00,meteohub,2013-08-19 22:28:00,
2013-08-19 16:34:00,75.0,40.6,29.76,East,93,10.0,21.0,29,0.00,,,0.00,meteohub,2013-08-19 22:34:00,
2013-08-19 16:40:00,74.7,41.2,29.75,East,94,9.0,21.0,30,0.00,,,0.00,meteohub,2013-08-19 22:40:00,
2013-08-19 16:46:00,74.7,41.2,29.75,East,95,10.0,18.0,30,0.00,,,0.00,meteohub,2013-08-19 22:46:00,
2013-08-19 16:52:00,74.7,42.1,29.76,East,85,14.0,18.0,31,0.00,,,0.00,meteohub,2013-08-19 22:52:00,
2013-08-19 16:58:00,74.5,41.9,29.76,East,94,7.0,18.0,31,0.00,,,0.00,meteohub,2013-08-19 22:58:00,
2013-08-19 17:04:00,74.1,41.5,29.76,ESE,102,9.0,16.0,31,0.00,,,0.00,meteohub,2013-08-19 23:04:00,
2013-08-19 17:10:00,73.9,42.3,29.76,East,91,5.0,15.0,32,0.00,,,0.00,meteohub,2013-08-19 23:10:00,
2013-08-19 17:16:00,73.9,41.4,29.76,East,101,9.0,14.0,31,0.00,,,0.00,meteohub,2013-08-19 23:16:00,
2013-08-19 17:22:00,73.8,41.2,29.75,East,93,10.0,11.0,31,0.00,,,0.00,meteohub,2013-08-19 23:22:00,
2013-08-19 17:28:00,73.6,41.9,29.75,East,85,9.0,15.0,32,0.00,,,0.00,meteohub,2013-08-19 23:28:00,
2013-08-19 17:34:00,73.2,41.5,29.76,East,87,8.0,15.0,32,0.00,,,0.00,meteohub,2013-08-19 23:34:00,
2013-08-19 17:40:00,73.0,41.4,29.76,East,97,9.0,13.0,32,0.00,,,0.00,meteohub,2013-08-19 23:40:00,
2013-08-19 17:46:00,73.0,41.4,29.76,East,93,7.0,13.0,32,0.00,,,0.00,meteohub,2013-08-19 23:46:00,
2013-08-19 17:52:00,73.0,40.6,29.76,ENE,64,7.0,13.0,31,0.00,,,0.00,meteohub,2013-08-19 23:52:00,
2013-08-19 17:58:00,73.0,41.4,29.76,ENE,58,3.0,11.0,32,0.00,,,0.00,meteohub,2013-08-19 23:58:00,
2013-08-19 18:04:00,73.2,40.8,29.76,NE,47,3.0,9.0,31,0.00,,,0.00,meteohub,2013-08-20 00:04:00,
2013-08-19 18:10:00,73.6,41.0,29.75,North,353,6.0,10.0,31,0.00,,,0.00,meteohub,2013-08-20 00:10:00,
2013-08-19 18:16:00,73.6,41.0,29.75,North,10,6.0,9.0,31,0.00,,,0.00,meteohub,2013-08-20 00:16:00,
2013-08-19 18:22:00,73.6,41.0,29.75,NNE,16,7.0,10.0,31,0.00,,,0.00,meteohub,2013-08-20 00:22:00,
2013-08-19 18:28:00,73.4,41.0,29.75,NNE,24,7.0,11.0,31,0.00,,,0.00,meteohub,2013-08-20 00:28:00,
2013-08-19 18:34:00,73.0,40.6,29.75,North,10,5.0,11.0,31,0.00,,,0.00,meteohub,2013-08-20 00:34:00,
2013-08-19 18:40:00,72.9,39.6,29.75,North,0,6.0,11.0,30,0.00,,,0.00,meteohub,2013-08-20 00:40:00,
2013-08-19 18:46:00,72.7,40.3,29.75,North,351,3.0,8.0,31,0.00,,,0.00,meteohub,2013-08-20 00:46:00,
2013-08-19 18:52:00,72.5,40.1,29.75,North,351,4.0,8.0,31,0.00,,,0.00,meteohub,2013-08-20 00:52:00,
2013-08-19 18:58:00,72.3,38.3,29.74,NNW,344,0.0,8.0,29,0.00,,,0.00,meteohub,2013-08-20 00:58:00,
2013-08-19 19:04:00,72.3,39.9,29.75,NNW,344,2.0,7.0,31,0.00,,,0.00,meteohub,2013-08-20 01:04:00,
2013-08-19 19:10:00,72.1,39.9,29.75,NNW,343,3.0,7.0,31,0.00,,,0.00,meteohub,2013-08-20 01:10:00,
2013-08-19 19:16:00,72.0,39.7,29.75,NNW,343,3.0,5.0,31,0.00,,,0.00,meteohub,2013-08-20 01:16:00,
2013-08-19 19:22:00,71.8,39.6,29.75,NNW,343,3.0,5.0,31,0.00,,,0.00,meteohub,2013-08-20 01:22:00,
2013-08-19 19:28:00,71.4,39.2,29.75,NNW,343,2.0,5.0,31,0.00,,,0.00,meteohub,2013-08-20 01:28:00,
2013-08-19 19:34:00,71.2,39.0,29.75,NNW,343,1.0,5.0,31,0.00,,,0.00,meteohub,2013-08-20 01:34:00,
2013-08-19 19:40:00,70.9,38.7,29.75,NNW,343,3.0,4.0,31,0.00,,,0.00,meteohub,2013-08-20 01:40:00,
2013-08-19 19:46:00,70.5,38.5,29.76,NNW,344,1.0,5.0,31,0.00,,,0.00,meteohub,2013-08-20 01:46:00,
2013-08-19 19:52:00,70.5,38.5,29.76,NNW,344,0.0,5.0,31,0.00,,,0.00,meteohub,2013-08-20 01:52:00,
2013-08-19 19:59:00,70.5,39.2,29.76,North,351,1.0,5.0,32,0.00,,,0.00,meteohub,2013-08-20 01:59:00,
2013-08-19 20:05:00,70.2,39.7,29.77,North,351,0.0,5.0,33,0.00,,,0.00,meteohub,2013-08-20 02:05:00,
2013-08-19 20:11:00,70.2,39.7,29.77,North,351,0.0,4.0,33,0.00,,,0.00,meteohub,2013-08-20 02:11:00,
2013-08-19 20:17:00,69.8,40.1,29.77,North,351,0.0,1.0,34,0.00,,,0.00,meteohub,2013-08-20 02:17:00,
2013-08-19 20:23:00,69.4,39.9,29.78,North,351,0.0,1.0,34,0.00,,,0.00,meteohub,2013-08-20 02:23:00,
2013-08-19 20:29:00,69.3,39.7,29.78,North,351,1.0,1.0,34,0.00,,,0.00,meteohub,2013-08-20 02:29:00,
2013-08-19 20:35:00,69.1,40.3,29.78,North,351,0.0,3.0,35,0.00,,,0.00,meteohub,2013-08-20 02:35:00,
2013-08-19 20:41:00,68.9,40.1,29.79,North,351,0.0,3.0,35,0.00,,,0.00,meteohub,2013-08-20 02:41:00,
2013-08-19 20:47:00,68.7,39.9,29.79,North,351,1.0,3.0,35,0.00,,,0.00,meteohub,2013-08-20 02:47:00,
2013-08-19 20:53:00,68.7,39.9,29.79,North,351,0.0,2.0,35,0.00,,,0.00,meteohub,2013-08-20 02:53:00,
2013-08-19 20:59:00,68.5,43.3,29.79,North,351,3.0,3.0,40,0.00,,,0.00,meteohub,2013-08-20 02:59:00,
2013-08-19 21:05:00,68.2,44.2,29.80,North,351,2.0,4.0,42,0.00,,,0.00,meteohub,2013-08-20 03:05:00,
2013-08-19 21:11:00,67.6,46.8,29.80,North,351,0.0,4.0,47,0.00,,,0.00,meteohub,2013-08-20 03:11:00,
2013-08-19 21:17:00,67.3,43.3,29.80,North,349,5.0,5.0,42,0.00,,,0.00,meteohub,2013-08-20 03:17:00,
2013-08-19 21:23:00,67.3,42.8,29.80,NW,326,4.0,8.0,41,0.00,,,0.00,meteohub,2013-08-20 03:23:00,
2013-08-19 21:29:00,67.5,43.0,29.81,NNW,338,7.0,9.0,41,0.00,,,0.00,meteohub,2013-08-20 03:29:00,
2013-08-19 21:35:00,67.6,43.2,29.81,NNW,337,8.0,10.0,41,0.00,,,0.00,meteohub,2013-08-20 03:35:00,
2013-08-19 21:41:00,67.6,43.2,29.81,NNW,340,4.0,10.0,41,0.00,,,0.00,meteohub,2013-08-20 03:41:00,
2013-08-19 21:47:00,67.6,42.4,29.81,NNW,330,4.0,10.0,40,0.00,,,0.00,meteohub,2013-08-20 03:47:00,
2013-08-19 21:53:00,67.6,43.2,29.81,NNW,343,5.0,9.0,41,0.00,,,0.00,meteohub,2013-08-20 03:53:00,
2013-08-19 21:59:00,67.6,43.2,29.81,NNW,347,4.0,11.0,41,0.00,,,0.00,meteohub,2013-08-20 03:59:00,
2013-08-19 22:02:00,67.6,43.7,29.82,North,356,6.0,11.0,42,0.00,,,0.00,meteohub,2013-08-20 04:02:00,
2013-08-19 22:05:00,67.3,43.3,29.82,North,350,5.0,13.0,42,0.00,,,0.00,meteohub,2013-08-20 04:05:00,
2013-08-19 22:08:00,67.3,43.3,29.82,North,349,4.0,13.0,42,0.00,,,0.00,meteohub,2013-08-20 04:08:00,
2013-08-19 22:11:00,66.9,43.2,29.82,North,0,6.0,13.0,42,0.00,,,0.00,meteohub,2013-08-20 04:11:00,
2013-08-19 22:17:00,66.7,43.5,29.82,NNW,337,3.0,13.0,43,0.00,,,0.00,meteohub,2013-08-20 04:17:00,
2013-08-19 22:23:00,66.4,43.2,29.82,NNW,334,4.0,8.0,43,0.00,,,0.00,meteohub,2013-08-20 04:23:00,
2013-08-19 22:29:00,66.0,43.5,29.83,NW,324,3.0,8.0,44,0.00,,,0.00,meteohub,2013-08-20 04:29:00,
2013-08-19 22:35:00,65.5,43.0,29.83,WNW,291,4.0,6.0,44,0.00,,,0.00,meteohub,2013-08-20 04:35:00,
2013-08-19 22:41:00,64.8,43.5,29.82,WSW,249,4.0,7.0,46,0.00,,,0.00,meteohub,2013-08-20 04:41:00,
2013-08-19 22:47:00,64.0,43.3,29.82,WSW,243,3.0,10.0,47,0.00,,,0.00,meteohub,2013-08-20 04:47:00,
2013-08-19 22:53:00,63.7,43.7,29.82,WSW,243,1.0,10.0,48,0.00,,,0.00,meteohub,2013-08-20 04:53:00,
2013-08-19 22:59:00,63.0,44.1,29.81,WSW,243,2.0,6.0,50,0.00,,,0.00,meteohub,2013-08-20 04:59:00,
2013-08-19 23:06:00,62.4,43.5,29.81,WSW,251,5.0,5.0,50,0.00,,,0.00,meteohub,2013-08-20 05:06:00,
2013-08-19 23:12:00,62.2,43.9,29.81,WSW,257,3.0,7.0,51,0.00,,,0.00,meteohub,2013-08-20 05:12:00,
2013-08-19 23:18:00,62.1,43.7,29.81,West,259,4.0,7.0,51,0.00,,,0.00,meteohub,2013-08-20 05:18:00,
2013-08-19 23:24:00,62.1,43.7,29.81,West,276,4.0,7.0,51,0.00,,,0.00,meteohub,2013-08-20 05:24:00,
2013-08-19 23:30:00,62.1,43.2,29.81,WNW,284,3.0,7.0,50,0.00,,,0.00,meteohub,2013-08-20 05:30:00,
2013-08-19 23:36:00,62.1,43.2,29.81,WNW,285,3.0,7.0,50,0.00,,,0.00,meteohub,2013-08-20 05:36:00,
2013-08-19 23:42:00,62.1,43.2,29.81,WNW,289,7.0,7.0,50,0.00,,,0.00,meteohub,2013-08-20 05:42:00,
2013-08-19 23:48:00,62.1,43.2,29.80,WNW,289,4.0,8.0,50,0.00,,,0.00,meteohub,2013-08-20 05:48:00,
2013-08-19 23:54:00,61.9,43.0,29.80,WNW,284,7.0,8.0,50,0.00,,,0.00,meteohub,2013-08-20 05:54:00,